Simultaneous Nadir Overpasses (SNOs) Predictions

Prediction of SNOs between GOES-16 and METOP-C Satellite Orbit:

Table of predicted SNOs for the next 14.0 days since TLE Epoch: 3/14/2025
Index Date Time (GOES-16) GOES-16 Lat,Lon METOP-C Lat,Lon Distance(km) Time Diff (sec)
1 03/15/2025 14:15:01 0.06, -75.34 -0.81, -71.49 439.87 80
2 03/17/2025 02:36:43 -0.06, -75.34 -0.20, -76.09 85.27 80
3 03/18/2025 02:13:23 -0.05, -75.35 0.89, -71.09 485.42 80
4 03/19/2025 14:32:15 0.06, -75.42 0.09, -75.67 27.65 80
5 03/22/2025 02:30:36 -0.05, -75.44 -0.04, -75.27 19.17 80
6 03/23/2025 14:49:29 0.05, -75.50 1.01, -79.84 494.00 80
7 03/24/2025 14:31:29 0.05, -75.53 -0.10, -74.85 77.49 80
8 03/26/2025 02:50:29 -0.05, -75.53 -0.92, -79.44 445.53 80
9 03/27/2025 02:27:10 -0.05, -75.56 0.20, -74.45 126.21 80
10 03/28/2025 14:46:01 0.05, -75.63 0.82, -79.01 385.80 80
